Year,Month,Day,Hour,Minute,Value (Times are PST for temperature in C)
2019,07,11,00,00,15.60
2019,07,11,00,01,15.60
2019,07,11,00,02,15.60
2019,07,11,00,03,15.50
2019,07,11,00,04,15.50
2019,07,11,00,05,15.50
2019,07,11,00,06,15.50
2019,07,11,00,07,15.50
2019,07,11,00,08,15.50
2019,07,11,00,09,15.40
2019,07,11,00,10,15.50
2019,07,11,00,11,15.50
2019,07,11,00,12,15.60
2019,07,11,00,13,15.60
2019,07,11,00,14,15.70
2019,07,11,00,15,15.80
2019,07,11,00,16,15.90
2019,07,11,00,17,16.00
2019,07,11,00,18,16.10
2019,07,11,00,19,16.10
2019,07,11,00,20,16.10
2019,07,11,00,21,16.20
2019,07,11,00,22,16.20
2019,07,11,00,23,16.20
2019,07,11,00,24,16.20
2019,07,11,00,25,16.20
2019,07,11,00,26,16.10
2019,07,11,00,27,16.10
2019,07,11,00,28,16.00
2019,07,11,00,29,16.00
2019,07,11,00,30,16.00
2019,07,11,00,31,15.90
2019,07,11,00,32,15.90
2019,07,11,00,33,15.90
2019,07,11,00,34,15.90
2019,07,11,00,35,15.90
2019,07,11,00,36,15.80
2019,07,11,00,37,15.80
2019,07,11,00,38,15.70
2019,07,11,00,39,15.70
2019,07,11,00,40,15.70
2019,07,11,00,41,15.70
2019,07,11,00,42,15.70
2019,07,11,00,43,15.80
2019,07,11,00,44,15.80
2019,07,11,00,45,15.80
2019,07,11,00,46,15.80
2019,07,11,00,47,15.80
2019,07,11,00,48,15.80
2019,07,11,00,49,15.80
2019,07,11,00,50,15.80
2019,07,11,00,51,15.80
2019,07,11,00,52,15.80
2019,07,11,00,53,15.80
2019,07,11,00,54,15.70
2019,07,11,00,55,15.70
2019,07,11,00,56,15.70
2019,07,11,00,57,15.70
2019,07,11,00,58,15.70
2019,07,11,00,59,15.70
2019,07,11,01,00,15.70
2019,07,11,01,01,15.80
2019,07,11,01,02,15.80
2019,07,11,01,03,15.80
2019,07,11,01,04,15.80
2019,07,11,01,05,15.90
2019,07,11,01,06,15.90
2019,07,11,01,07,15.90
2019,07,11,01,08,15.90
2019,07,11,01,09,15.90
2019,07,11,01,10,15.90
2019,07,11,01,11,15.90
2019,07,11,01,12,15.90
2019,07,11,01,13,15.90
2019,07,11,01,14,16.00
2019,07,11,01,15,16.00
2019,07,11,01,16,16.00
2019,07,11,01,17,16.00
2019,07,11,01,18,16.00
2019,07,11,01,19,16.10
2019,07,11,01,20,16.00
2019,07,11,01,21,16.00
2019,07,11,01,22,16.00
2019,07,11,01,23,16.00
2019,07,11,01,24,16.00
2019,07,11,01,25,16.00
2019,07,11,01,26,16.00
2019,07,11,01,27,16.00
2019,07,11,01,28,16.00
2019,07,11,01,29,15.90
2019,07,11,01,30,15.90
2019,07,11,01,31,15.90
2019,07,11,01,32,15.90
2019,07,11,01,33,15.90
2019,07,11,01,34,15.90
2019,07,11,01,35,15.90
2019,07,11,01,36,15.90
2019,07,11,01,37,15.90
2019,07,11,01,38,15.90
2019,07,11,01,39,15.90
2019,07,11,01,40,15.90
2019,07,11,01,41,15.90
2019,07,11,01,42,15.90
2019,07,11,01,43,15.90
2019,07,11,01,44,15.90
2019,07,11,01,45,15.90
2019,07,11,01,46,15.90
2019,07,11,01,47,15.90
2019,07,11,01,48,15.80
2019,07,11,01,49,15.80
2019,07,11,01,50,15.80
2019,07,11,01,51,15.80
2019,07,11,01,52,15.80
2019,07,11,01,53,15.80
2019,07,11,01,54,15.80
2019,07,11,01,55,15.80
2019,07,11,01,56,15.80
2019,07,11,01,57,15.70
2019,07,11,01,58,15.70
2019,07,11,01,59,15.70
2019,07,11,02,00,15.70
2019,07,11,02,01,15.70
2019,07,11,02,02,15.70
2019,07,11,02,03,15.70
2019,07,11,02,04,15.70
2019,07,11,02,05,15.80
2019,07,11,02,06,15.80
2019,07,11,02,07,15.90
2019,07,11,02,08,15.90
2019,07,11,02,09,15.90
2019,07,11,02,10,15.80
2019,07,11,02,11,15.80
2019,07,11,02,12,15.80
2019,07,11,02,13,15.80
2019,07,11,02,14,15.80
2019,07,11,02,15,15.70
2019,07,11,02,16,15.70
2019,07,11,02,17,15.70
2019,07,11,02,18,15.70
2019,07,11,02,19,15.70
2019,07,11,02,20,15.70
2019,07,11,02,21,15.70
2019,07,11,02,22,15.60
2019,07,11,02,23,15.60
2019,07,11,02,24,15.60
2019,07,11,02,25,15.50
2019,07,11,02,26,15.50
2019,07,11,02,27,15.50
2019,07,11,02,28,15.40
2019,07,11,02,29,15.40
2019,07,11,02,30,15.40
2019,07,11,02,31,15.40
2019,07,11,02,32,15.30
2019,07,11,02,33,15.30
2019,07,11,02,34,15.20
2019,07,11,02,35,15.20
2019,07,11,02,36,15.10
2019,07,11,02,37,15.00
2019,07,11,02,38,15.00
2019,07,11,02,39,15.00
2019,07,11,02,40,15.00
2019,07,11,02,41,15.00
2019,07,11,02,42,15.00
2019,07,11,02,43,14.90
2019,07,11,02,44,14.90
2019,07,11,02,45,14.80
2019,07,11,02,46,14.80
2019,07,11,02,47,14.80
2019,07,11,02,48,14.70
2019,07,11,02,49,14.70
2019,07,11,02,50,14.70
2019,07,11,02,51,14.70
2019,07,11,02,52,14.70
2019,07,11,02,53,14.70
2019,07,11,02,54,14.80
2019,07,11,02,55,14.80
2019,07,11,02,56,14.80
2019,07,11,02,57,14.90
2019,07,11,02,58,15.00
2019,07,11,02,59,15.00
2019,07,11,03,00,15.00
2019,07,11,03,01,15.00
2019,07,11,03,02,15.00
2019,07,11,03,03,15.00
2019,07,11,03,04,15.00
2019,07,11,03,05,15.00
2019,07,11,03,06,15.00
2019,07,11,03,07,15.00
2019,07,11,03,08,15.00
2019,07,11,03,09,15.10
2019,07,11,03,10,15.10
2019,07,11,03,11,15.10
2019,07,11,03,12,15.10
2019,07,11,03,13,15.10
2019,07,11,03,14,15.20
2019,07,11,03,15,15.20
2019,07,11,03,16,15.20
2019,07,11,03,17,15.20
2019,07,11,03,18,15.20
2019,07,11,03,19,15.20
2019,07,11,03,20,15.20
2019,07,11,03,21,15.20
2019,07,11,03,22,15.20
2019,07,11,03,23,15.20
2019,07,11,03,24,15.10
2019,07,11,03,25,15.10
2019,07,11,03,26,15.00
2019,07,11,03,27,15.00
2019,07,11,03,28,15.00
2019,07,11,03,29,15.00
2019,07,11,03,30,15.00
2019,07,11,03,31,15.00
2019,07,11,03,32,15.00
2019,07,11,03,33,15.00
2019,07,11,03,34,15.00
2019,07,11,03,35,15.00
2019,07,11,03,36,15.00
2019,07,11,03,37,15.00
2019,07,11,03,38,15.00
2019,07,11,03,39,15.00
2019,07,11,03,40,15.00
2019,07,11,03,41,15.00
2019,07,11,03,42,15.00
2019,07,11,03,43,15.00
2019,07,11,03,44,15.00
2019,07,11,03,45,15.00
2019,07,11,03,46,15.00
2019,07,11,03,47,15.00
2019,07,11,03,48,15.00
2019,07,11,03,49,15.00
2019,07,11,03,50,15.00
2019,07,11,03,51,15.00
2019,07,11,03,52,15.00
2019,07,11,03,53,15.00
2019,07,11,03,54,15.00
2019,07,11,03,55,15.00
2019,07,11,03,56,15.00
2019,07,11,03,57,15.00
2019,07,11,03,58,15.00
2019,07,11,03,59,15.00
2019,07,11,04,00,15.00
2019,07,11,04,01,15.00
2019,07,11,04,02,15.00
2019,07,11,04,03,15.00
2019,07,11,04,04,15.00
2019,07,11,04,05,15.00
2019,07,11,04,06,15.00
2019,07,11,04,07,15.00
2019,07,11,04,08,15.00
2019,07,11,04,09,15.00
2019,07,11,04,10,15.00
2019,07,11,04,11,15.00
2019,07,11,04,12,15.00
2019,07,11,04,13,15.00
2019,07,11,04,14,14.90
2019,07,11,04,15,14.90
2019,07,11,04,16,14.90
2019,07,11,04,17,14.90
2019,07,11,04,18,15.00
2019,07,11,04,19,15.00
2019,07,11,04,20,15.00
2019,07,11,04,21,15.00
2019,07,11,04,22,15.00
2019,07,11,04,23,15.00
2019,07,11,04,24,15.00
2019,07,11,04,25,15.00
2019,07,11,04,26,15.00
2019,07,11,04,27,15.00
2019,07,11,04,28,15.00
2019,07,11,04,29,15.10
2019,07,11,04,30,15.10
2019,07,11,04,31,15.10
2019,07,11,04,32,15.00
2019,07,11,04,33,15.00
2019,07,11,04,34,15.00
2019,07,11,04,35,15.00
2019,07,11,04,36,15.00
2019,07,11,04,37,15.10
2019,07,11,04,38,15.10
2019,07,11,04,39,15.10
2019,07,11,04,40,15.20
2019,07,11,04,41,15.30
2019,07,11,04,42,15.30
2019,07,11,04,43,15.40
2019,07,11,04,44,15.40
2019,07,11,04,45,15.50
2019,07,11,04,46,15.50
2019,07,11,04,47,15.60
2019,07,11,04,48,15.60
2019,07,11,04,49,15.60
2019,07,11,04,50,15.60
2019,07,11,04,51,15.60
2019,07,11,04,52,15.70
2019,07,11,04,53,15.70
2019,07,11,04,54,15.70
2019,07,11,04,55,15.80
2019,07,11,04,56,15.80
2019,07,11,04,57,15.80
2019,07,11,04,58,15.90
2019,07,11,04,59,15.90
2019,07,11,05,00,15.90
2019,07,11,05,01,15.90
2019,07,11,05,02,15.90
2019,07,11,05,03,15.90
2019,07,11,05,04,15.90
2019,07,11,05,05,15.90
2019,07,11,05,06,15.90
2019,07,11,05,07,15.90
2019,07,11,05,08,15.90
2019,07,11,05,09,15.90
2019,07,11,05,10,15.90
2019,07,11,05,11,15.90
2019,07,11,05,12,15.90
2019,07,11,05,13,15.90
2019,07,11,05,14,15.90
2019,07,11,05,15,15.80
2019,07,11,05,16,15.80
2019,07,11,05,17,15.80
2019,07,11,05,18,15.80
2019,07,11,05,19,15.80
2019,07,11,05,20,15.80
2019,07,11,05,21,15.80
2019,07,11,05,22,15.80
2019,07,11,05,23,15.80
2019,07,11,05,24,15.80
2019,07,11,05,25,15.80
2019,07,11,05,26,15.80
2019,07,11,05,27,15.80
2019,07,11,05,28,15.80
2019,07,11,05,29,15.80
2019,07,11,05,30,15.80
2019,07,11,05,31,15.80
2019,07,11,05,32,15.80
2019,07,11,05,33,15.80
2019,07,11,05,34,15.80
2019,07,11,05,35,15.80
2019,07,11,05,36,15.70
2019,07,11,05,37,15.70
2019,07,11,05,38,15.70
2019,07,11,05,39,15.70
2019,07,11,05,40,15.70
2019,07,11,05,41,15.70
2019,07,11,05,42,15.70
2019,07,11,05,43,15.70
2019,07,11,05,44,15.70
2019,07,11,05,45,15.70
2019,07,11,05,46,15.70
2019,07,11,05,47,15.70
2019,07,11,05,48,15.70
2019,07,11,05,49,15.70
2019,07,11,05,50,15.70
2019,07,11,05,51,15.70
2019,07,11,05,52,15.70
2019,07,11,05,53,15.70
2019,07,11,05,54,15.60
2019,07,11,05,55,15.60
2019,07,11,05,56,15.60
2019,07,11,05,57,15.60
2019,07,11,05,58,15.60
2019,07,11,05,59,15.60
2019,07,11,06,00,15.60
2019,07,11,06,01,15.60
2019,07,11,06,02,15.60
2019,07,11,06,03,15.60
2019,07,11,06,04,15.60
2019,07,11,06,05,15.70
2019,07,11,06,06,15.70
2019,07,11,06,07,15.70
2019,07,11,06,08,15.70
2019,07,11,06,09,15.80
2019,07,11,06,10,15.80
2019,07,11,06,11,15.80
2019,07,11,06,12,15.80
2019,07,11,06,13,15.80
2019,07,11,06,14,15.80
2019,07,11,06,15,15.80
2019,07,11,06,16,15.80
2019,07,11,06,17,15.80
2019,07,11,06,18,15.80
2019,07,11,06,19,15.80
2019,07,11,06,20,15.80
2019,07,11,06,21,15.80
2019,07,11,06,22,15.80
2019,07,11,06,23,15.80
2019,07,11,06,24,15.80
2019,07,11,06,25,15.80
2019,07,11,06,26,15.90
2019,07,11,06,27,15.90
2019,07,11,06,28,15.90
2019,07,11,06,29,15.90
2019,07,11,06,30,15.90
2019,07,11,06,31,16.00
2019,07,11,06,32,16.00
2019,07,11,06,33,16.00
2019,07,11,06,34,16.10
2019,07,11,06,35,16.10
2019,07,11,06,36,16.10
2019,07,11,06,37,16.10
2019,07,11,06,38,16.10
2019,07,11,06,39,16.10
2019,07,11,06,40,16.10
2019,07,11,06,41,16.10
2019,07,11,06,42,16.10
2019,07,11,06,43,16.10
2019,07,11,06,44,16.10
2019,07,11,06,45,16.10
2019,07,11,06,46,16.10
2019,07,11,06,47,16.10
2019,07,11,06,48,16.10
2019,07,11,06,49,16.10
2019,07,11,06,50,16.10
2019,07,11,06,51,16.10
2019,07,11,06,52,16.10
2019,07,11,06,53,16.10
2019,07,11,06,54,16.10
2019,07,11,06,55,16.20
2019,07,11,06,56,16.20
2019,07,11,06,57,16.20
2019,07,11,06,58,16.20
2019,07,11,06,59,16.30
2019,07,11,07,00,16.30
2019,07,11,07,01,16.30
2019,07,11,07,02,16.30
2019,07,11,07,03,16.40
2019,07,11,07,04,16.40
2019,07,11,07,05,16.30
2019,07,11,07,06,16.20
2019,07,11,07,07,16.10
2019,07,11,07,08,16.00
2019,07,11,07,09,16.00
2019,07,11,07,10,15.90
2019,07,11,07,11,15.90
2019,07,11,07,12,15.90
2019,07,11,07,13,15.90
2019,07,11,07,14,15.90
2019,07,11,07,15,15.90
2019,07,11,07,16,15.90
2019,07,11,07,17,15.90
2019,07,11,07,18,16.00
2019,07,11,07,19,16.00
2019,07,11,07,20,16.00
2019,07,11,07,21,16.00
2019,07,11,07,22,16.00
2019,07,11,07,23,16.00
2019,07,11,07,24,16.00
2019,07,11,07,25,15.90
2019,07,11,07,26,15.90
2019,07,11,07,27,16.00
2019,07,11,07,28,16.00
2019,07,11,07,29,16.00
2019,07,11,07,30,16.00
2019,07,11,07,31,16.00
2019,07,11,07,32,16.00
2019,07,11,07,33,16.10
2019,07,11,07,34,16.10
2019,07,11,07,35,16.10
2019,07,11,07,36,16.10
2019,07,11,07,37,16.10
2019,07,11,07,38,16.20
2019,07,11,07,39,16.20
2019,07,11,07,40,16.20
2019,07,11,07,41,16.20
2019,07,11,07,42,16.20
2019,07,11,07,43,16.20
2019,07,11,07,44,16.20
2019,07,11,07,45,16.20
2019,07,11,07,46,16.20
2019,07,11,07,47,16.30
2019,07,11,07,48,16.30
2019,07,11,07,49,16.30
2019,07,11,07,50,16.30
2019,07,11,07,51,16.30
2019,07,11,07,52,16.30
2019,07,11,07,53,16.30
2019,07,11,07,54,16.40
2019,07,11,07,55,16.40
2019,07,11,07,56,16.40
2019,07,11,07,57,16.40
2019,07,11,07,58,16.40
2019,07,11,07,59,16.50
2019,07,11,08,00,16.50
2019,07,11,08,01,16.50
2019,07,11,08,02,16.50
2019,07,11,08,03,16.50
2019,07,11,08,04,16.60
2019,07,11,08,05,16.60
2019,07,11,08,06,16.60
2019,07,11,08,07,16.60
2019,07,11,08,08,16.50
2019,07,11,08,09,16.50
2019,07,11,08,10,16.50
2019,07,11,08,11,16.60
2019,07,11,08,12,16.60
2019,07,11,08,13,16.60
2019,07,11,08,14,16.60
2019,07,11,08,15,16.70
2019,07,11,08,16,16.70
2019,07,11,08,17,16.70
2019,07,11,08,18,16.70
2019,07,11,08,19,16.70
2019,07,11,08,20,16.70
2019,07,11,08,21,16.70
2019,07,11,08,22,16.70
2019,07,11,08,23,16.70
2019,07,11,08,24,16.70
2019,07,11,08,25,16.70
2019,07,11,08,26,16.70
2019,07,11,08,27,16.70
2019,07,11,08,28,16.70
2019,07,11,08,29,16.70
2019,07,11,08,30,16.70
2019,07,11,08,31,16.70
2019,07,11,08,32,16.70
2019,07,11,08,33,16.80
2019,07,11,08,34,16.80
2019,07,11,08,35,16.80
2019,07,11,08,36,16.80
2019,07,11,08,37,16.80
2019,07,11,08,38,16.80
2019,07,11,08,39,16.80
2019,07,11,08,40,16.80
2019,07,11,08,41,16.80
2019,07,11,08,42,16.80
2019,07,11,08,43,16.90
2019,07,11,08,44,16.90
2019,07,11,08,45,16.90
2019,07,11,08,46,17.00
2019,07,11,08,47,17.00
2019,07,11,08,48,17.00
2019,07,11,08,49,17.00
2019,07,11,08,50,17.10
2019,07,11,08,51,17.10
2019,07,11,08,52,17.10
2019,07,11,08,53,17.20
2019,07,11,08,54,17.30
2019,07,11,08,55,17.30
2019,07,11,08,56,17.30
2019,07,11,08,57,17.40
2019,07,11,08,58,17.50
2019,07,11,08,59,17.60
2019,07,11,09,00,17.60
2019,07,11,09,01,17.70
2019,07,11,09,02,17.80
2019,07,11,09,03,17.90
2019,07,11,09,04,17.90
2019,07,11,09,05,18.00
2019,07,11,09,06,18.00
2019,07,11,09,07,18.10
2019,07,11,09,08,18.10
2019,07,11,09,09,18.20
2019,07,11,09,10,18.20
2019,07,11,09,11,18.10
2019,07,11,09,12,18.10
2019,07,11,09,13,18.10
2019,07,11,09,14,18.00
2019,07,11,09,15,18.10
2019,07,11,09,16,18.10
2019,07,11,09,17,18.10
2019,07,11,09,18,18.10
2019,07,11,09,19,18.20
2019,07,11,09,20,18.20
2019,07,11,09,21,18.30
2019,07,11,09,22,18.30
2019,07,11,09,23,18.40
2019,07,11,09,24,18.50
2019,07,11,09,25,18.60
2019,07,11,09,26,18.50
2019,07,11,09,27,18.60
2019,07,11,09,28,18.60
2019,07,11,09,29,18.60
2019,07,11,09,30,18.70
2019,07,11,09,31,18.70
2019,07,11,09,32,18.70
2019,07,11,09,33,18.80
2019,07,11,09,34,18.80
2019,07,11,09,35,18.90
2019,07,11,09,36,19.00
2019,07,11,09,37,19.10
2019,07,11,09,38,19.10
2019,07,11,09,39,19.10
2019,07,11,09,40,19.10
2019,07,11,09,41,19.10
2019,07,11,09,42,19.20
2019,07,11,09,43,19.20
2019,07,11,09,44,19.30
2019,07,11,09,45,19.40
2019,07,11,09,46,19.50
2019,07,11,09,47,19.40
2019,07,11,09,48,19.40
2019,07,11,09,49,19.50
2019,07,11,09,50,19.50
2019,07,11,09,51,19.50
2019,07,11,09,52,19.40
2019,07,11,09,53,19.40
2019,07,11,09,54,19.50
2019,07,11,09,55,19.50
2019,07,11,09,56,19.50
2019,07,11,09,57,19.50
2019,07,11,09,58,19.50
2019,07,11,09,59,19.50
2019,07,11,10,00,19.40
2019,07,11,10,01,19.30
2019,07,11,10,02,19.20
2019,07,11,10,03,19.10
2019,07,11,10,04,19.10
2019,07,11,10,05,19.10
2019,07,11,10,06,19.10
2019,07,11,10,07,19.10
2019,07,11,10,08,19.10
2019,07,11,10,09,19.10
2019,07,11,10,10,19.10
2019,07,11,10,11,19.10
2019,07,11,10,12,19.20
2019,07,11,10,13,19.20
2019,07,11,10,14,19.20
2019,07,11,10,15,19.20
2019,07,11,10,16,19.30
2019,07,11,10,17,19.30
2019,07,11,10,18,19.30
2019,07,11,10,19,19.30
2019,07,11,10,20,19.30
2019,07,11,10,21,19.20
2019,07,11,10,22,19.20
2019,07,11,10,23,19.20
2019,07,11,10,24,19.20
2019,07,11,10,25,19.10
2019,07,11,10,26,19.10
2019,07,11,10,27,19.10
2019,07,11,10,28,19.10
2019,07,11,10,29,19.20
2019,07,11,10,30,19.20
2019,07,11,10,31,19.20
2019,07,11,10,32,19.20
2019,07,11,10,33,19.20
2019,07,11,10,34,19.20
2019,07,11,10,35,19.20
2019,07,11,10,36,19.20
2019,07,11,10,37,19.20
2019,07,11,10,38,19.20
2019,07,11,10,39,19.20
2019,07,11,10,40,19.20
2019,07,11,10,41,19.20
2019,07,11,10,42,19.10
2019,07,11,10,43,19.00
2019,07,11,10,44,19.00
2019,07,11,10,45,19.00
2019,07,11,10,46,19.00
2019,07,11,10,47,19.00
2019,07,11,10,48,18.90
2019,07,11,10,49,18.90
2019,07,11,10,50,18.90
2019,07,11,10,51,18.90
2019,07,11,10,52,18.80
2019,07,11,10,53,18.70
2019,07,11,10,54,18.60
2019,07,11,10,55,18.50
2019,07,11,10,56,18.50
2019,07,11,10,57,18.40
2019,07,11,10,58,18.40
2019,07,11,10,59,18.40
2019,07,11,11,00,18.40
2019,07,11,11,01,18.40
2019,07,11,11,02,18.50
2019,07,11,11,03,18.50
2019,07,11,11,04,18.40
2019,07,11,11,05,18.40
2019,07,11,11,06,18.40
2019,07,11,11,07,18.40
2019,07,11,11,08,18.40
2019,07,11,11,09,18.40
2019,07,11,11,10,18.40
2019,07,11,11,11,18.40
2019,07,11,11,12,18.50
2019,07,11,12,10,19.60
2019,07,11,12,11,19.60
2019,07,11,12,12,19.60
2019,07,11,12,13,19.70
2019,07,11,12,14,19.70
2019,07,11,12,15,19.80
2019,07,11,12,16,19.80
2019,07,11,12,17,19.80
2019,07,11,12,18,19.90
2019,07,11,12,19,19.90
2019,07,11,12,20,19.90
2019,07,11,12,21,20.00
2019,07,11,12,22,19.90
2019,07,11,12,23,19.90
2019,07,11,12,24,19.80
2019,07,11,12,25,19.80
2019,07,11,12,26,19.80
2019,07,11,12,27,19.80
2019,07,11,12,28,19.80
2019,07,11,12,29,19.80
2019,07,11,12,30,19.80
2019,07,11,12,31,19.80
2019,07,11,12,32,19.80
2019,07,11,12,33,19.90
2019,07,11,12,34,19.90
2019,07,11,12,35,19.90
2019,07,11,12,36,19.90
2019,07,11,12,37,19.90
2019,07,11,12,38,19.90
2019,07,11,12,39,19.90
2019,07,11,12,40,20.00
2019,07,11,12,41,20.10
2019,07,11,12,42,20.10
2019,07,11,12,43,20.10
2019,07,11,12,44,20.10
2019,07,11,12,45,20.10
2019,07,11,12,46,20.10
2019,07,11,12,47,20.10
2019,07,11,12,48,20.20
2019,07,11,12,49,20.40
2019,07,11,12,50,20.50
2019,07,11,12,51,20.40
2019,07,11,12,52,20.40
2019,07,11,12,53,20.50
2019,07,11,12,54,20.50
2019,07,11,12,55,20.60
2019,07,11,12,56,20.60
2019,07,11,12,57,20.60
2019,07,11,12,58,20.70
2019,07,11,12,59,20.70
2019,07,11,13,00,20.70
2019,07,11,13,01,20.70
2019,07,11,13,02,20.60
2019,07,11,13,03,20.60
2019,07,11,13,04,20.60
2019,07,11,13,05,20.60
2019,07,11,13,06,20.60
2019,07,11,13,07,20.60
2019,07,11,13,08,20.60
2019,07,11,13,09,20.60
2019,07,11,13,10,20.50
2019,07,11,13,11,20.50
2019,07,11,13,12,20.60
2019,07,11,13,13,20.50
2019,07,11,13,14,20.50
2019,07,11,13,15,20.40
2019,07,11,13,16,20.40
2019,07,11,13,17,20.30
2019,07,11,13,18,20.30
2019,07,11,13,19,20.20
2019,07,11,13,20,20.20
2019,07,11,13,21,20.20
2019,07,11,13,22,20.20
2019,07,11,13,23,20.20
2019,07,11,13,24,20.20
2019,07,11,13,25,20.30
2019,07,11,13,26,20.30
2019,07,11,13,27,20.30
2019,07,11,13,28,20.20
2019,07,11,13,29,20.20
2019,07,11,13,30,20.20
2019,07,11,13,31,20.20
2019,07,11,13,32,20.10
2019,07,11,13,33,20.10
2019,07,11,13,34,20.10
2019,07,11,13,35,20.20
2019,07,11,13,36,20.20
2019,07,11,13,37,20.20
2019,07,11,13,38,20.20
2019,07,11,13,39,20.20
2019,07,11,13,40,20.20
2019,07,11,13,41,20.20
2019,07,11,13,42,20.20
2019,07,11,13,43,20.20
2019,07,11,13,44,20.20
2019,07,11,13,45,20.20
2019,07,11,13,46,20.20
2019,07,11,13,47,20.20
2019,07,11,13,48,20.20
2019,07,11,13,49,20.20
2019,07,11,13,50,20.20
2019,07,11,13,51,20.20
2019,07,11,13,52,20.20
2019,07,11,13,53,20.20
2019,07,11,13,54,20.20
2019,07,11,13,55,20.20
2019,07,11,13,56,20.30
2019,07,11,13,57,20.20
2019,07,11,13,58,20.20
2019,07,11,13,59,20.30
2019,07,11,14,00,20.30
2019,07,11,14,01,20.30
2019,07,11,14,02,20.30
2019,07,11,14,03,20.30
2019,07,11,14,04,20.30
2019,07,11,14,05,20.30
2019,07,11,14,06,20.30
2019,07,11,14,07,20.30
2019,07,11,14,08,20.30
2019,07,11,14,09,20.40
2019,07,11,14,10,20.60
2019,07,11,14,11,20.70
2019,07,11,14,12,20.70
2019,07,11,14,13,20.80
2019,07,11,14,14,21.00
2019,07,11,14,15,21.10
2019,07,11,14,16,21.20
2019,07,11,14,17,21.20
2019,07,11,14,18,21.20
2019,07,11,14,19,21.30
2019,07,11,14,20,21.30
2019,07,11,14,21,21.30
2019,07,11,14,22,21.20
2019,07,11,14,23,21.10
2019,07,11,14,24,21.10
2019,07,11,14,25,21.10
2019,07,11,14,26,21.10
2019,07,11,14,27,21.10
2019,07,11,14,28,21.10
2019,07,11,14,29,21.10
2019,07,11,14,30,21.10
2019,07,11,14,31,21.10
2019,07,11,14,32,21.00
2019,07,11,14,33,20.90
2019,07,11,14,34,20.80
2019,07,11,14,35,20.80
2019,07,11,14,36,20.80
2019,07,11,14,37,20.70
2019,07,11,14,38,20.80
2019,07,11,14,39,20.80
2019,07,11,14,40,20.80
2019,07,11,14,41,20.80
2019,07,11,14,42,20.90
2019,07,11,14,43,20.90
2019,07,11,14,44,20.90
2019,07,11,14,45,20.90
2019,07,11,14,46,20.90
2019,07,11,14,47,20.90
2019,07,11,14,48,20.90
2019,07,11,14,49,20.80
2019,07,11,14,50,20.80
2019,07,11,14,51,20.80
2019,07,11,14,52,20.80
2019,07,11,14,53,20.80
2019,07,11,14,54,20.80
2019,07,11,14,55,20.80
2019,07,11,14,56,20.80
2019,07,11,14,57,20.70
2019,07,11,14,58,20.70
2019,07,11,14,59,20.60
2019,07,11,15,00,20.60
2019,07,11,15,01,20.60
2019,07,11,15,02,20.60
2019,07,11,15,03,20.60
2019,07,11,15,04,20.70
2019,07,11,15,05,20.70
2019,07,11,15,06,20.80
2019,07,11,15,07,20.80
2019,07,11,15,08,20.80
2019,07,11,15,09,20.80
2019,07,11,15,10,20.80
2019,07,11,15,11,20.80
2019,07,11,15,12,20.80
2019,07,11,15,13,20.80
2019,07,11,15,14,20.80
2019,07,11,15,15,20.80
2019,07,11,15,16,20.80
2019,07,11,15,17,20.70
2019,07,11,15,18,20.60
2019,07,11,15,19,20.50
2019,07,11,15,20,20.50
2019,07,11,15,21,20.50
2019,07,11,15,22,20.50
2019,07,11,15,23,20.60
2019,07,11,15,24,20.60
2019,07,11,15,25,20.60
2019,07,11,15,26,20.70
2019,07,11,15,27,20.70
2019,07,11,15,28,20.70
2019,07,11,15,29,20.70
2019,07,11,15,30,20.60
2019,07,11,15,31,20.60
2019,07,11,15,32,20.60
2019,07,11,15,33,20.60
2019,07,11,15,34,20.70
2019,07,11,15,35,20.70
2019,07,11,15,36,20.60
2019,07,11,15,37,20.60
2019,07,11,15,38,20.60
2019,07,11,15,39,20.70
2019,07,11,15,40,20.80
2019,07,11,15,41,20.80
2019,07,11,15,42,20.80
2019,07,11,15,43,20.80
2019,07,11,15,44,20.80
2019,07,11,15,45,20.80
2019,07,11,15,46,20.80
2019,07,11,15,47,20.70
2019,07,11,15,48,20.70
2019,07,11,15,49,20.70
2019,07,11,15,50,20.80
2019,07,11,15,51,20.80
2019,07,11,15,52,20.80
2019,07,11,15,53,20.80
2019,07,11,15,54,20.80
2019,07,11,15,55,20.70
2019,07,11,15,56,20.60
2019,07,11,15,57,20.60
2019,07,11,15,58,20.50
2019,07,11,15,59,20.40
2019,07,11,16,00,20.40
2019,07,11,16,01,20.40
2019,07,11,16,02,20.40
2019,07,11,16,03,20.40
2019,07,11,16,04,20.40
2019,07,11,16,05,20.50
2019,07,11,16,06,20.60
2019,07,11,16,07,20.60
2019,07,11,16,08,20.70
2019,07,11,16,09,20.70
2019,07,11,16,10,20.70
2019,07,11,16,11,20.80
2019,07,11,16,12,20.90
2019,07,11,16,13,20.90
2019,07,11,16,14,20.90
2019,07,11,16,15,20.80
2019,07,11,16,16,20.80
2019,07,11,16,17,20.70
2019,07,11,16,18,20.60
2019,07,11,16,19,20.50
2019,07,11,16,20,20.40
2019,07,11,16,21,20.30
2019,07,11,16,22,20.30
2019,07,11,16,23,20.30
2019,07,11,16,24,20.30
2019,07,11,16,25,20.30
2019,07,11,16,26,20.30
2019,07,11,16,27,20.30
2019,07,11,16,28,20.30
2019,07,11,16,29,20.30
2019,07,11,16,30,20.30
2019,07,11,16,31,20.30
2019,07,11,16,32,20.30
2019,07,11,16,33,20.30
2019,07,11,16,34,20.40
2019,07,11,16,35,20.40
2019,07,11,16,36,20.40
2019,07,11,16,37,20.40
2019,07,11,16,38,20.40
2019,07,11,16,39,20.40
2019,07,11,16,40,20.40
2019,07,11,16,41,20.50
2019,07,11,16,42,20.50
2019,07,11,16,43,20.60
2019,07,11,16,44,20.60
2019,07,11,16,45,20.70
2019,07,11,16,46,20.70
2019,07,11,16,47,20.80
2019,07,11,16,48,20.80
2019,07,11,16,49,20.80
2019,07,11,16,50,20.80
2019,07,11,16,51,20.70
2019,07,11,16,52,20.70
2019,07,11,16,53,20.70
2019,07,11,16,54,20.80
2019,07,11,16,55,20.80
2019,07,11,16,56,20.90
2019,07,11,16,57,20.90
2019,07,11,16,58,21.00
2019,07,11,16,59,21.10
2019,07,11,17,00,21.10
2019,07,11,17,01,21.10
2019,07,11,17,02,21.10
2019,07,11,17,03,21.10
2019,07,11,17,04,21.10
2019,07,11,17,05,21.10
2019,07,11,17,06,21.00
2019,07,11,17,07,21.00
2019,07,11,17,08,21.00
2019,07,11,17,09,21.00
2019,07,11,17,10,20.90
2019,07,11,17,11,20.90
2019,07,11,17,12,20.80
2019,07,11,17,13,20.80
2019,07,11,17,14,20.70
2019,07,11,17,15,20.70
2019,07,11,17,16,20.70
2019,07,11,17,17,20.70
2019,07,11,17,18,20.70
2019,07,11,17,19,20.70
2019,07,11,17,20,20.70
2019,07,11,17,21,20.80
2019,07,11,17,22,20.80
2019,07,11,17,23,20.80
2019,07,11,17,24,20.70
2019,07,11,17,25,20.70
2019,07,11,17,26,20.70
2019,07,11,17,27,20.60
2019,07,11,17,28,20.50
2019,07,11,17,29,20.40
2019,07,11,17,30,20.30
2019,07,11,17,31,20.20
2019,07,11,17,32,20.20
2019,07,11,17,33,20.20
2019,07,11,17,34,20.20
2019,07,11,17,35,20.20
2019,07,11,17,36,20.30
2019,07,11,17,37,20.30
2019,07,11,17,38,20.30
2019,07,11,17,39,20.30
2019,07,11,17,40,20.30
2019,07,11,17,41,20.40
2019,07,11,17,42,20.40
2019,07,11,17,43,20.50
2019,07,11,17,44,20.50
2019,07,11,17,45,20.50
2019,07,11,17,46,20.50
2019,07,11,17,47,20.50
2019,07,11,17,48,20.50
2019,07,11,17,49,20.60
2019,07,11,17,50,20.60
2019,07,11,17,51,20.60
2019,07,11,17,52,20.60
2019,07,11,17,53,20.50
2019,07,11,17,54,20.50
2019,07,11,17,55,20.50
2019,07,11,17,56,20.50
2019,07,11,17,57,20.50
2019,07,11,17,58,20.40
2019,07,11,17,59,20.40
2019,07,11,18,00,20.40
2019,07,11,18,01,20.40
2019,07,11,18,02,20.40
2019,07,11,18,03,20.40
2019,07,11,18,04,20.40
2019,07,11,18,05,20.40
2019,07,11,18,06,20.30
2019,07,11,18,07,20.30
2019,07,11,18,08,20.30
2019,07,11,18,09,20.30
2019,07,11,18,10,20.20
2019,07,11,18,11,20.20
2019,07,11,18,12,20.10
2019,07,11,18,13,20.10
2019,07,11,18,14,20.10
2019,07,11,18,15,20.20
2019,07,11,18,16,20.20